Regional Weather Roundup
Issued by NWS

Home | Current Version | Previous Version | Text Only | Print | Product List | Glossary Off
Versions: 1 2 3 4 5 6 7 8 9 10 11 12 13 14 15 16 17 18 19 20 21 22 23 24 25 26 27 28 29 30 31 32 33 34 35 36 37 38 39 40 41 42 43 44 45 46 47 48 49 50

000
ASUS45 KCYS 281510
RWRWY

WYOMING REGIONAL WEATHER ROUNDUP
NATIONAL WEATHER SERVICE CHEYENNE WY
900 AM MDT THU APR 28 2016

NOTE:  "FAIR" INDICATES FEW OR NO CLOUDS BELOW 12,000 FEET
WITH NO SIGNIFICANT WEATHER AND/OR OBSTRUCTIONS TO VISIBILITY.

WYZ001-281600-
YELLOWSTONE NATIONAL PARK

CITY           SKY/WX    TMP DP  RH WIND       PRES   REMARKS
LK YELLOWSTONE   N/A     29  22  75 CALM      29.90S
W YELLOWSTONE  NOT AVBL

$$
WYZ002>013-054>058-071-098>099-281600-
NORTHERN WYOMING

CITY           SKY/WX    TMP DP  RH WIND       PRES   REMARKS
JACKSON        NOT AVBL
CODY           CLOUDY    30  28  93 N13       30.00R WCI  20
GREYBULL       CLOUDY    36  31  82 VRB5      30.00R WCI  32
WORLAND        CLOUDY    36  30  79 NW5       30.01R WCI  32
SHERIDAN       CLOUDY    34  30  85 NE3       30.05S
BUFFALO        CLOUDY    31  28  89 N9        30.02R WCI  23
GILLETTE       CLOUDY    31  30  96 N12       30.01S WCI  22
HULETT         CLOUDY    32  32 100 N6        30.03S WCI  26
NEWCASTLE      PTSUNNY   36  28  75 N6        30.00S WCI  31

$$
WYZ014>020-022>026-101>103-281600-
CENTRAL WYOMING

CITY           SKY/WX    TMP DP  RH WIND       PRES   REMARKS
BIG PINEY      PTSUNNY   35  28  75 SW8       29.86S WCI  29
PINEDALE       PTSUNNY   36  30  80 NW10G16   29.85S WCI  28
DUBOIS         CLOUDY    27  27 100 SE14G20   29.90R WCI  15
LANDER         CLOUDY    32  29  88 NE9       29.95R FOG     WCI  24
RIVERTON       CLOUDY    34  29  82 NE12      29.97R WCI  25
CASPER         CLOUDY    32  27  81 NE10      29.98R WCI  24
DOUGLAS        CLOUDY    33  28  81 N7        30.00S WCI  27

$$
WYZ021-027>030-104>119-281600-
SOUTHERN WYOMING

CITY           SKY/WX    TMP DP  RH WIND       PRES   REMARKS
EVANSTON       CLOUDY    32  25  75 E21G28    29.79S WCI  20
FORT BRIDGER   FLURRIES  32  32 100 E16       29.86R WCI  21
ROCK SPRINGS   CLOUDY    32  25  75 NE24G36   29.85R WCI  19
DIXON          FAIR      41  27  58 E12       29.81S
RAWLINS        CLOUDY    30  23  75 E16G26    29.91R WCI  19
SARATOGA       CLOUDY    32  27  80 E8        29.88S WCI  25
LARAMIE        CLOUDY    28  23  81 NE9       29.91S WCI  19
CHEYENNE       CLOUDY    32  27  81 NE10      29.95S WCI  24
TORRINGTON     FAIR      38  27  64 N9G16     29.99R WCI  31
PINE BLUFFS    CLOUDY    34  30  86 N14       29.98S WCI  24

$$



USA.gov is the U.S. government's official web portal to all federal, state and local government web resources and services.